STARLINK-1803, 46703

Orbit data source: Space-Track

STARLINK-1803, 46703 is a payload satellite owned by SpaceX/Seattle (US) in LEO that was launched on Sun, 18 Oct 2020 UTC via an FALCON 9 launch vehicle from the Air Force Eastern Test Range (AFETR). Payloads include a variety of satellites, spacecraft, and rockets equipped with specific instruments for various scientific and technological missions. These include communications satellites like Starlink; space stations such as the ISS; scientific satellites like the Hubble; Earth observation satellites from companies like Planet Labs, Umbra, and HawkEye 360; GPS; miniature CubeSats for education and research; and military/defense satellites.

Loading next visibility...
STARLINK-1803 details
Identifier
46703, 2020-073AK
Orbit
LEO
Last TLE update23 hours ago
Origin
Flag of USSpaceX/Seattle (US)
ManufacturerSpaceX/Seattle
MissionPartially operational Commercial Communications
Bus & MotorSTARLINK, Unknown motor
Mass260 kg wet, ~248 kg dry
Launch date (UTC)
2020-10-18 (4 years ago)
Launch vehicle
FALCON 9
Launch site
Air Force Eastern Test Range (AFETR)
Object type
Payload
Rocket body
Debris
Shape & HBRBox + 1 Pan, 8.86 m
Radar Cross Section13.562 m², Large (>1 m²)

Expand to show TLE details & history

TLE from 23 hours ago
0 STARLINK-1803
1 46703U 20073AK  24360.50696414  .00054596  00000-0  12261-2 0  9995
2 46703  53.0540  44.5803 0004704  39.3609 320.7737 15.42849061231520
Epoch: 2024-12-25T12:10Z
Definitive object data (Epoch: 2024-12-25T12:10:01.701Z)
Latitude-0.00004°
Longitude127.57346°
Altitude436.116 km
Speed7.653 km/s
True Right ascension02h 58m 19s
True Declination0° 00' 00"
Sunlit
Object was in full shadow at TLE epoch
Visualization TLE readout
Latitude-44.95489°
Longitude-8.6311°
Altitude455.606 km
Speed7.637 km/s
Apparent Right ascension20h 07m 30s
Apparent Declination-47° 27' 53"
Sunlit
Object is in daylight
Visualization observer readout
Local Sidereal Time10:19:47
Azimuth118.661° SE
Elevation-65.137°
Doppler factor1
Orbital elements
Apogee altitude441.187 km
Perigee altitude434.774 km
Semi-major axis6,816.118 km
Eccentricity0.0004704
Inclination53.054°
RAAN44.5803°
Arg. of periapsis39.3609°
True anomaly320.7396°
Mean anomaly320.7737°
Eccentric anomaly320.75665°
Mean motion3.85689 °/min
BSTAR0.0012261
Orbital period93.34 mins
Loading maneuver chart data...
Loading historical data...
Loading historical data...
Loading historical data...
Loading historical data...
Loading historical data...
Loading historical data...
Loading historical data...

STARLINK-1803 Visibility forecast

Observer location: undefined°, undefined

Span
Click to sort rows by Start time (UTC) header in descending order
Start Az.
Max El. time (UTC)
Max El. Az.
Max El.
End time (UTC)
End Az.
5 mins2024-12-26 11:57:31.523Z326.845° NNW2024-12-26 12:00:31.523Z44.582° NE30.589°2024-12-26 12:02:31.523Z94.478° ESE
4 mins2024-12-26 13:35:31.523Z269.738° W2024-12-26 13:37:31.523Z220.097° SW21.583°2024-12-26 13:39:31.523Z179.561° S
4 mins2024-12-27 04:45:31.523Z175.039° S2024-12-27 04:47:31.523Z120.314° SE23.831°2024-12-27 04:49:31.523Z78.319° E
4 mins2024-12-27 06:22:31.523Z278.47° WNW2024-12-27 06:24:31.523Z342.477° N28.024°2024-12-27 06:26:31.523Z27.808° NE
|